RH
100 103 99 94 100 103 94 76 74 88 93 96 98 91 88 97 101 103 104 98 99 101 101 102 101 101 98 97 101 105 102 101 105 99 87 79 72 76 87 98 100 97 96 94 99 99 90 84 78 68 66 63 53 51 53 68 91 104 102 96 95 69 50 56 61 77 95 95 84 79 78 76 70 61 57 53 56 64 69 67 63 60 55 52 50 50 54 58 56 53 51 51 62 68 68 68 62
99 99 100 95 96 104 103 96 88 79 84 97 102 101 97 95 95 93 92 88 89 94 99 102 102 101 99 98 95 97 102 102 104 107 99 84 71 69 77 86 88 87 83 77 84 93 92 85 78 71 71 74 63 57 54 55 69 84 84 79 77 64 63 69 73 86 91 91 81 72 74 75 71 60 53 50 56 62 65 66 68 68 63 57 52 52 54 59 57 52 52 51 64 82 80 76 74
90 92 96 97 98 101 97 99 102 93 91 97 100 104 102 99 99 94 86 81 79 78 86 98 104 103 101 106 104 98 101 103 104 108 99 85 74 67 72 78 75 74 75 72 72 77 81 77 75 70 68 76 74 65 61 60 62 65 62 57 60 68 85 90 88 92 94 96 85 74 71 69 66 55 47 50 59 65 67 72 79 78 72 65 59 57 57 59 57 51 52 55 66 80 73 69 74
68 76 83 93 98 97 98 99 99 98 97 99 100 101 101 100 103 101 95 93 92 87 89 97 104 104 101 105 108 104 102 99 97 104 102 91 86 75 71 80 82 81 80 81 79 77 81 84 79 74 72 77 82 78 73 74 71 66 64 63 73 89 102 100 90 91 98 95 80 70 65 62 58 51 54 65 73 77 79 84 87 84 76 69 63 60 59 59 59 54 56 65 71 72 64 56 57
55 62 66 75 84 87 94 100 100 97 91 96 102 97 96 99 101 101 101 101 100 99 99 99 101 100 100 102 107 105 93 88 84 89 98 98 100 91 83 91 100 99 91 88 89 88 90 94 90 83 83 85 85 84 84 87 84 77 74 75 85 94 93 86 75 76 84 81 71 64 62 61 58 60 71 80 83 87 94 97 94 84 71 64 61 58 58 59 58 56 61 71 76 75 73 64 54
59 58 59 59 63 65 72 80 94 106 95 89 100 100 94 98 101 101 103 104 101 101 101 101 102 99 102 104 104 98 81 83 87 86 94 100 104 102 97 99 103 105 100 94 94 98 101 101 98 93 90 88 82 77 79 82 78 72 69 68 73 75 68 63 62 70 76 75 74 71 67 64 69 76 80 86 89 93 100 98 90 75 63 60 58 55 57 59 57 58 62 70 82 88 91 90 79
82 72 69 61 59 58 54 56 69 97 102 91 97 104 97 92 96 98 101 104 102 101 101 101 101 99 100 97 90 83 78 86 95 96 99 101 103 102 103 104 102 102 99 97 100 103 106 106 104 100 95 90 81 75 72 69 67 64 63 63 63 63 57 55 59 69 78 80 80 79 76 74 82 85 85 94 100 101 98 86 74 65 62 60 59 57 57 57 56 59 61 65 76 81 82 88 85
96 90 84 71 67 58 51 64 76 90 103 100 98 102 100 95 94 94 93 96 100 100 104 104 100 96 89 81 75 71 80 96 100 101 102 103 100 92 89 91 94 93 90 94 102 106 102 102 104 103 99 94 88 83 77 71 68 67 69 70 72 72 65 60 62 69 79 87 84 83 84 83 86 89 96 103 101 95 85 73 66 64 64 60 60 59 55 56 56 59 61 58 61 65 65 66 66
87 88 85 75 66 49 53 86 99 94 96 100 101 102 101 98 97 99 95 91 92 92 96 100 98 95 88 82 82 81 89 101 100 96 98 101 93 78 69 72 83 85 86 93 98 104 98 91 93 97 99 99 97 94 90 84 79 78 77 79 82 85 80 70 75 85 89 89 85 89 95 95 96 98 103 106 100 89 78 72 69 68 65 60 60 57 54 54 55 57 59 57 55 56 56 55 55
92 88 84 76 61 44 54 83 93 95 95 95 99 102 103 100 96 98 101 97 92 88 83 80 81 84 90 93 93 91 97 100 99 97 97 96 86 73 67 73 90 91 94 103 96 96 98 95 93 91 94 99 102 100 98 95 91 87 84 83 83 84 85 80 84 96 101 99 93 93 98 100 101 101 106 108 101 87 78 76 75 72 67 63 61 57 55 53 53 54 54 54 53 55 53 49 52
99 100 93 81 66 49 50 63 70 79 85 91 97 99 101 103 100 95 96 100 99 97 91 81 72 71 77 86 89 89 97 103 100 100 99 95 84 78 75 77 92 95 93 98 98 98 98 99 101 99 99 100 102 101 101 102 99 95 92 91 87 83 84 83 82 86 94 101 101 100 101 102 102 101 103 99 89 81 79 80 78 71 64 61 60 58 55 52 51 50 51 52 52 55 55 52 52
81 95 101 95 79 63 55 53 52 54 58 71 88 95 98 101 102 99 94 94 96 98 99 97 90 84 81 83 87 84 88 101 103 101 101 95 87 84 83 80 86 95 93 86 88 92 92 95 96 97 99 100 103 102 101 104 104 101 95 91 91 88 86 83 82 84 90 95 98 101 100 98 98 95 90 84 84 86 85 80 73 66 59 56 57 57 54 50 48 48 50 52 53 54 55 56 56
55 68 87 101 97 85 74 67 62 57 49 48 63 79 88 98 99 99 100 97 97 96 96 99 100 99 98 95 96 90 82 85 92 96 98 94 89 88 85 81 81 86 87 79 73 73 77 84 87 88 91 94 98 101 100 99 99 95 91 89 87 87 86 83 81 83 90 92 92 98 100 96 93 91 89 90 92 90 84 79 71 65 60 56 57 56 52 47 45 47 49 50 52 52 53 55 55
41 46 55 78 100 102 95 92 87 77 61 41 45 56 64 90 102 99 102 102 102 101 98 99 97 98 100 98 100 103 96 88 82 77 80 83 83 86 85 80 76 72 72 73 73 76 79 82 85 90 92 92 94 98 99 97 98 95 94 95 92 90 86 80 78 78 81 82 81 87 96 97 97 98 96 93 91 88 86 82 71 62 60 59 60 58 54 49 46 46 47 48 48 47 48 49 51
29 34 34 47 76 95 98 102 102 93 77 47 41 56 59 81 102 102 103 102 103 102 99 100 98 101 100 92 89 93 98 102 100 84 71 70 72 78 80 78 76 75 78 81 85 92 96 96 95 97 98 98 98 101 101 101 104 103 100 98 96 93 84 80 83 85 82 76 74 80 91 97 98 96 90 87 89 87 82 75 65 60 60 61 63 63 59 54 52 50 48 49 48 48 49 50 50
23 24 25 32 50 67 74 83 94 93 84 57 47 69 75 81 93 96 99 100 102 102 101 102 100 103 102 97 92 85 84 91 104 105 89 75 68 67 70 75 77 80 85 88 91 94 96 96 93 92 94 94 94 97 97 94 93 89 86 86 86 80 75 85 93 96 91 80 79 85 93 95 91 88 84 83 81 75 67 63 62 63 65 68 70 68 63 59 57 57 58 60 60 60 60 61 61
29 26 25 28 38 52 53 57 80 93 88 67 55 77 92 90 91 88 89 94 98 101 101 100 100 100 100 100 99 94 92 91 95 105 105 94 82 74 69 69 72 78 82 84 87 91 94 94 90 86 85 84 84 87 85 81 78 73 74 73 70 63 66 81 90 92 87 78 79 83 85 82 79 79 76 71 67 64 63 64 67 71 75 78 77 71 65 64 67 70 73 76 76 75 74 73 73
35 38 37 35 36 48 53 48 72 100 102 84 63 78 100 98 98 96 91 94 94 99 102 101 98 96 93 91 93 93 95 100 98 99 104 104 98 94 88 82 79 77 76 80 85 89 92 90 87 85 84 81 77 77 74 69 65 63 67 65 59 58 61 68 74 76 71 68 70 72 74 73 71 71 69 69 71 74 77 80 81 83 85 83 79 74 74 78 85 88 87 86 83 80 80 80 79
32 39 47 52 46 45 51 46 61 94 109 102 76 74 97 104 104 102 101 103 102 104 105 98 92 86 78 71 75 79 82 93 101 99 100 102 102 103 102 99 95 89 85 87 87 84 82 75 69 72 80 82 77 74 72 71 68 64 63 61 59 60 62 62 63 65 63 65 69 71 73 74 75 76 79 84 87 93 98 97 94 92 88 85 84 84 88 92 94 93 89 85 81 78 79 79 78
26 29 37 50 55 50 53 49 49 72 95 108 99 82 89 102 105 103 103 104 100 98 93 87 82 74 62 52 54 62 69 79 89 92 94 95 95 97 99 99 98 94 85 73 62 56 56 55 52 58 70 81 86 84 83 84 84 82 80 80 81 80 80 78 75 75 76 80 84 85 87 89 91 93 95 97 98 105 107 102 98 96 93 92 94 94 96 96 93 90 86 80 76 74 74 74 74
23 24 26 31 40 44 50 54 50 55 68 86 100 97 94 98 101 101 101 98 97 96 87 78 68 56 45 42 48 57 65 69 73 78 84 87 83 82 87 87 80 67 52 40 34 33 34 37 40 47 58 71 82 87 90 92 93 95 97 100 101 100 100 99 97 96 95 97 98 98 99 99 99 100 100 102 105 106 108 104 98 95 94 94 94 95 94 93 90 85 81 75 69 68 71 73 74
24 23 25 23 26 30 34 41 48 52 54 58 68 80 91 97 101 103 103 102 99 89 71 59 55 50 43 44 53 60 68 70 67 67 73 80 77 73 72 62 48 35 30 28 28 28 29 30 32 37 49 65 75 78 82 90 95 100 104 106 106 104 103 102 103 104 102 102 103 100 100 101 101 100 100 103 105 101 99 96 90 90 92 85 78 82 85 84 83 79 75 70 64 66 69 72 74
25 25 25 25 24 27 30 34 43 52 56 56 53 56 67 80 88 90 89 86 75 60 51 53 58 57 50 46 47 49 55 59 59 58 61 66 64 58 51 39 30 27 27 27 26 27 27 28 29 32 42 57 69 72 77 86 91 96 101 105 107 105 105 104 104 106 106 102 102 99 97 97 96 94 94 96 96 92 89 88 89 93 92 79 67 72 78 79 77 75 72 68 66 69 71 73 76
25 26 26 26 25 27 32 38 44 50 53 52 48 45 44 49 54 57 59 56 50 47 50 54 53 48 43 38 34 33 34 36 39 42 43 43 40 36 32 28 27 27 26 25 26 26 26 26 27 30 34 44 56 63 72 83 89 92 96 100 103 104 106 108 108 107 106 103 100 100 99 96 97 96 95 95 94 94 93 94 97 97 93 82 73 72 75 77 76 72 69 67 69 72 72 75 77
28 28 27 26 26 26 27 32 34 36 36 34 33 32 31 33 38 45 49 45 42 42 42 39 36 32 29 27 26 26 25 25 26 27 28 28 26 26 26 26 25 25 25 26 25 25 25 25 25 27 29 34 42 47 53 63 74 84 93 99 104 106 105 106 109 104 103 108 104 102 105 102 103 104 101 101 101 103 102 101 104 101 97 91 84 80 79 79 77 71 68 68 71 72 72 75 77
29 29 30 28 27 26 26 26 26 26 25 25 25 26 28 32 37 41 39 34 30 29 28 26 24 22 22 22 23 23 23 23 23 23 23 23 23 23 23 24 23 23 24 24 25 26 26 26 26 26 27 29 32 35 40 48 62 75 85 92 97 102 103 104 109 103 102 111 105 102 109 105 102 103 102 103 104 104 103 103 105 102 100 98 95 92 90 86 79 72 69 69 71 71 72 73 74
31 30 30 30 29 28 27 26 26 26 25 24 24 25 26 28 29 30 27 24 23 22 22 21 20 21 21 21 21 21 22 22 22 22 22 21 22 22 23 23 23 23 23 24 24 24 24 25 26 26 26 27 27 29 33 41 53 65 74 83 92 99 102 104 108 103 102 109 104 101 107 103 100 101 102 103 103 103 102 102 102 101 102 102 99 95 92 88 82 77 74 72 70 70 72 74 78
34 33 31 30 30 29 29 30 31 30 28 26 25 24 25 25 26 26 24 22 22 21 21 21 21 20 20 20 20 20 21 21 21 21 21 21 21 21 21 22 22 23 23 23 23 23 23 23 24 24 25 26 27 28 29 31 36 43 51 62 76 88 98 103 104 103 102 103 101 100 102 100 100 101 101 101 101 101 101 101 101 102 101 99 97 92 90 90 90 89 86 83 81 80 82 86 90
34 33 33 32 31 30 31 33 34 33 31 28 26 25 26 26 26 25 23 22 22 22 21 20 20 20 20 20 20 20 20 21 21 21 21 21 21 21 21 21 22 22 22 22 23 23 23 23 24 24 24 25 25 26 26 28 28 30 33 38 46 58 73 86 95 103 105 104 103 102 101 101 101 101 101 101 102 101 101 101 101 102 99 97 98 98 98 98 101 103 98 94 93 91 92 93 95
28 30 31 32 32 32 32 32 32 31 30 29 26 26 26 26 25 24 24 23 22 22 22 21 20 20 20 19 19 20 20 20 20 20 21 21 21 21 21 22 22 22 22 23 23 23 23 24 25 25 25 25 25 25 25 26 26 27 28 30 32 36 46 59 73 86 95 100 104 104 103 103 103 102 101 102 104 103 104 105 102 103 101 101 103 102 102 101 103 104 97 92 93 93 93 93 93
22 23 25 28 29 31 33 32 31 30 29 28 26 26 27 27 27 26 25 24 23 23 22 21 21 20 20 20 20 20 20 21 21 21 21 21 21 21 21 22 22 23 23 23 23 23 24 24 24 25 25 26 26 27 27 27 27 28 29 30 31 34 39 48 59 68 76 85 92 98 102 104 105 106 107 108 108 107 107 106 104 104 104 104 105 103 101 100 99 96 89 88 91 91 90 88 86
18 18 19 21 24 26 30 31 30 29 29 28 28 28 29 29 30 28 26 24 24 23 23 22 22 22 21 21 20 21 21 21 21 21 21 21 21 21 21 21 22 22 23 23 23 24 24 25 25 26 26 27 28 29 29 29 30 31 32 35 37 40 46 54 63 70 77 84 90 96 101 105 107 109 111 111 108 105 102 99 97 98 100 102 102 101 100 98 94 92 90 89 88 84 79 74 71
17 17 17 17 18 19 22 24 25 26 27 27 28 29 29 28 29 28 26 25 24 24 24 23 23 23 23 22 22 22 21 21 21 21 21 21 21 21 21 21 21 21 21 21 22 23 23 24 25 27 28 28 29 30 30 31 32 33 34 36 38 42 48 57 65 74 82 88 93 98 101 103 104 105 107 106 104 101 99 98 97 98 101 102 100 99 98 97 97 95 91 85 78 72 66 65 67
17 15 14 14 14 15 16 18 20 21 22 23 23 23 24 24 24 25 25 24 24 23 23 22 22 22 21 21 21 21 20 20 20 20 19 19 20 20 20 20 19 19 19 19 19 20 20 21 22 23 25 27 28 30 31 31 32 33 33 34 36 38 43 49 56 64 72 78 84 89 94 98 101 103 103 103 101 98 96 96 96 97 99 98 96 96 95 94 90 81 72 65 62 63 65 69 72
14 14 13 13 13 14 15 15 16 16 16 17 16 16 17 18 19 19 20 20 20 20 19 18 18 18 17 17 17 17 17 17 17 17 17 16 16 16 17 16 16 17 17 17 17 17 18 18 19 20 22 24 26 28 29 30 31 32 33 34 35 37 39 43 47 52 57 63 68 73 78 84 89 92 91 90 88 87 86 86 87 88 89 88 84 79 74 68 63 58 56 57 59 62 64 65 64
11 12 12 12 12 12 13 13 13 12 12 13 12 13 13 13 14 14 15 15 16 16 15 14 14 13 13 13 13 13 14 14 15 15 15 16 15 15 15 15 16 16 17 17 18 18 19 20 21 22 24 25 27 29 30 31 32 34 35 36 37 37 38 39 40 41 43 46 48 51 54 58 60 62 64 65 66 69 71 72 73 72 69 65 59 55 52 51 53 56 59 60 60 59 56 54 52
11 11 11 11 11 12 13 13 12 11 10 11 11 11 11 12 12 12 12 12 14 15 15 14 14 13 13 13 13 14 15 15 15 17 18 18 18 18 18 18 18 18 19 20 20 21 22 24 25 27 28 29 31 32 33 34 36 38 39 40 40 40 39 39 38 38 39 40 40 41 41 42 43 44 45 47 49 51 52 53 52 50 48 46 46 48 50 52 55 57 58 58 57 55 51 47 43
16 15 14 14 15 16 18 17 16 14 13 15 15 14 14 16 15 15 16 16 18 19 20 19 19 19 18 18 18 18 18 19 19 20 20 20 20 20 20 20 21 21 22 23 24 26 26 27 28 29 30 32 34 36 38 38 39 40 41 42 41 41 40 40 40 40 41 41 40 40 40 40 40 41 41 41 42 41 41 42 42 43 43 44 47 49 50 52 53 53 53 52 49 46 42 37 32
30 28 26 26 26 24 24 24 22 19 18 19 21 20 22 24 23 23 24 24 25 25 24 24 24 24 23 22 22 22 21 21 21 21 21 21 21 22 22 23 23 24 26 27 29 30 30 31 31 32 34 35 38 39 40 40 40 41 42 43 42 42 42 41 41 40 40 40 40 40 40 40 40 39 40 40 40 41 42 43 45 46 47 48 49 49 49 48 46 44 42 39 36 34 31 29 28
33 33 33 36 37 34 33 35 32 29 26 24 25 23 25 28 27 27 26 26 27 27 26 25 25 25 24 24 23 24 24 24 24 24 24 24 24 25 26 26 27 28 29 30 31 31 32 34 36 38 39 41 42 43 45 46 46 48 49 49 48 47 45 44 43 43 42 42 41 41 40 40 40 40 41 42 44 45 46 47 47 47 46 45 43 41 39 37 35 34 31 30 29 29 29 29 29
24 25 26 30 32 31 31 36 37 37 35 34 32 27 31 38 38 37 34 31 30 28 27 28 27 26 26 26 27 28 28 29 29 29 29 29 30 31 31 31 32 33 33 33 32 33 35 37 39 41 42 44 47 49 53 55 56 57 57 56 53 51 48 46 45 43 42 42 41 41 42 42 42 43 43 43 43 43 42 41 40 38 37 35 33 32 31 30 30 29 29 29 29 29 29 29 29
21 22 23 23 24 24 24 26 27 30 33 36 34 28 36 52 58 59 55 50 46 42 40 39 35 34 34 34 34 33 33 33 33 33 33 34 35 35 36 37 37 37 37 37 37 38 40 40 41 42 43 46 49 51 53 54 55 55 54 52 49 47 45 43 41 40 40 41 41 41 40 40 40 39 38 37 36 35 34 33 32 32 31 30 30 30 30 30 29 30 29 29 29 28 28 27 27
20 22 22 21 21 22 21 21 20 21 25 29 29 24 30 50 67 70 64 61 58 52 53 54 51 49 50 49 48 47 45 42 40 37 36 36 36 37 38 39 39 40 40 40 42 42 43 43 43 44 45 46 47 48 48 49 49 49 48 47 45 44 44 42 41 41 41 41 39 39 38 37 36 35 34 33 33 33 32 32 32 32 32 31 31 31 31 31 30 30 30 29 29 28 28 28 29
16 18 18 17 18 19 18 18 17 17 18 20 23 22 21 35 58 66 61 60 58 51 51 54 56 59 62 65 66 66 65 61 57 52 47 44 43 42 42 42 41 41 41 41 42 42 42 43 44 45 45 46 46 46 46 46 46 46 45 44 44 43 42 41 40 40 40 39 37 36 35 34 34 33 33 33 32 32 32 32 32 31 31 31 31 32 32 32 33 34 34 34 35 35 34 34 34
15 16 16 15 15 15 15 15 15 14 14 15 18 20 17 22 39 51 52 53 52 50 50 49 50 54 60 67 72 74 75 73 71 68 64 61 58 57 55 53 50 47 44 43 42 42 42 42 42 43 43 43 43 42 42 43 42 42 42 41 41 39 38 37 36 36 35 35 34 33 33 33 32 32 32 32 32 32 32 32 32 33 34 35 36 37 38 38 39 39 39 38 37 36 33 31 30
15 15 15 15 15 14 14 13 13 12 12 13 16 17 15 16 24 33 39 44 44 43 44 47 51 54 58 62 66 69 72 73 74 74 74 73 72 71 69 68 65 60 56 53 51 49 47 46 46 46 46 45 44 43 42 41 41 40 40 39 37 36 35 34 34 35 36 36 35 34 35 35 36 36 36 36 36 35 36 36 37 38 38 37 36 36 35 34 33 32 30 29 28 26 25 23 22
15 15 15 15 15 15 14 13 13 12 11 14 15 15 13 12 17 23 27 34 39 37 36 37 43 50 55 57 59 61 64 66 69 72 74 76 76 75 75 74 72 68 66 64 61 60 59 58 56 56 54 52 50 47 46 45 45 44 44 43 42 40 39 39 39 41 41 40 39 38 37 37 37 37 35 34 33 32 32 31 31 30 28 27 26 25 25 24 23 23 22 21 21 20 19 19 18
15 15 15 16 15 15 15 14 14 13 13 15 15 15 13 12 15 19 20 23 29 32 34 34 35 39 42 45 47 50 52 55 58 61 64 66 68 70 70 70 69 68 68 67 66 65 64 63 61 60 58 55 52 50 49 49 49 49 48 46 44 41 39 39 38 38 37 36 33 31 29 28 28 28 27 26 25 24 24 23 23 22 22 22 21 20 20 19 18 18 17 17 16 15 15 14 14
15 16 16 16 16 16 15 15 14 14 14 15 16 16 15 16 18 18 17 18 20 22 26 30 33 38 40 41 42 43 44 45 46 47 48 50 52 54 55 56 57 57 58 57 57 56 55 54 52 51 49 45 43 42 41 41 40 39 37 35 34 32 30 29 28 27 26 25 24 23 23 23 23 23 23 22 22 21 21 20 19 19 18 17 16 16 15 14 14 13 13 12 12 12 11 11 11
15 15 16 16 16 16 16 16 15 15 14 14 14 15 15 17 19 18 16 16 16 17 18 22 27 34 41 46 47 46 45 44 44 43 42 42 41 41 42 42 42 42 43 42 42 42 41 41 39 38 37 35 33 33 32 31 30 29 27 27 26 25 24 24 23 23 23 22 22 22 22 21 21 21 19 18 18 17 16 15 15 14 14 13 13 12 12 12 11 11 11 11 11 11 10 10 10
15 15 15 15 15 15 15 15 14 14 13 13 13 13 14 15 16 16 16 15 16 18 20 22 25 29 33 38 42 44 46 46 46 45 44 43 42 41 41 40 40 40 40 40 40 39 39 38 37 36 35 33 32 31 30 28 27 26 25 25 25 24 24 23 22 22 21 21 20 19 18 17 17 16 15 14 14 14 13 12 12 12 12 11 11 11 12 12 12 12 12 12 12 11 11 11 11
16 15 15 15 15 14 14 14 14 13 13 13 13 12 13 13 13 13 13 15 16 18 21 23 26 28 28 29 31 34 38 40 42 43 44 44 43 42 40 39 39 38 38 39 37 36 36 34 33 32 31 29 28 28 27 26 25 25 25 24 23 23 21 20 20 18 17 16 16 15 14 14 14 13 13 13 13 13 13 12 13 13 13 13 14 14 14 14 13 13 13 13 12 12 12 12 12
17 17 17 16 15 14 14 14 13 13 13 13 13 12 12 12 12 12 13 14 14 15 17 19 21 24 26 27 28 29 31 33 35 37 39 40 39 39 37 36 35 35 34 34 33 32 32 31 30 30 29 28 27 26 25 24 23 22 22 20 19 18 17 16 16 15 14 14 13 14 14 14 14 14 14 15 15 16 16 16 16 16 16 16 17 16 16 15 15 15 14 14 14 13 13 12 12
19 19 18 18 17 16 15 14 13 13 13 13 13 12 12 12 13 12 13 13 14 14 14 15 16 18 19 21 23 25 27 28 30 32 33 34 34 34 33 33 33 33 33 32 31 31 30 29 28 27 26 25 23 22 21 19 18 17 17 16 15 15 15 15 14 14 14 15 16 17 17 17 17 17 17 17 18 18 18 18 18 18 17 17 17 17 16 16 16 16 15 15 14 14 13 13 12
21 20 21 20 20 19 18 16 15 14 13 13 13 13 13 13 13 14 13 13 13 13 14 15 15 15 15 16 17 18 20 22 23 25 26 26 26 26 26 26 27 26 26 26 25 25 25 23 22 21 20 19 18 17 16 16 15 15 15 15 16 16 16 17 18 18 19 20 21 21 20 20 19 18 18 17 18 18 18 18 17 17 17 16 16 16 16 16 15 16 15 14 14 13 12 12 11
22 23 23 22 23 23 21 20 18 17 16 15 14 13 13 14 14 15 15 15 15 15 14 14 14 14 14 15 16 18 19 20 20 20 20 20 20 21 21 21 21 21 21 21 21 21 20 19 18 17 17 17 17 17 16 17 17 18 19 19 20 21 21 22 22 22 22 22 22 21 20 19 18 17 17 17 17 17 17 17 16 16 16 16 17 16 16 15 15 14 14 13 12 12 12 11 11
25 26 25 25 27 26 25 25 23 22 21 19 17 15 14 15 17 17 17 17 17 16 15 15 15 15 15 15 16 17 18 19 19 17 16 17 17 17 18 18 18 18 19 19 19 19 18 18 18 19 20 21 22 22 22 23 24 24 24 25 24 24 24 23 23 22 22 21 21 20 19 18 17 17 17 17 17 17 17 16 16 16 17 18 18 18 17 16 15 15 14 14 13 12 12 11 11
27 27 26 27 29 29 30 30 29 29 28 25 22 18 16 17 18 18 18 20 19 19 18 19 19 19 20 20 20 21 24 22 18 16 16 17 17 18 20 21 23 24 25 25 26 25 25 25 25 26 28 28 28 28 28 27 27 27 27 26 24 24 23 22 21 21 21 20 20 19 18 18 18 18 17 17 17 18 18 17 17 18 19 20 20 19 18 17 17 17 16 15 14 13 13 12 12
Wind_Speed
84 87 88 87 83 81 82 84 83 83 82 77 76 77 80 81 83 85 84 80 76 72 70 68 66 66 65 66 66 64 62 62 62 62 64 68 70 69 69 68 67 68 68 69 68 68 68 67 64 63 62 60 59 60 61 63 66 69 70 69 66 63 61 60 61 62 63 63 63 64 64 64 64 64 63 61 58 58 60 61 61 61 62 63 64 64 63 63 64 63 62 62 63 65 67 67 69
82 87 90 91 89 85 85 86 82 80 80 78 77 78 80 81 82 84 84 83 82 82 80 77 74 71 69 68 69 68 65 65 66 67 69 71 72 73 73 71 72 72 72 71 71 70 68 67 65 65 64 62 62 61 61 62 65 68 69 69 68 66 62 61 61 63 64 65 66 67 67 67 67 67 65 62 59 59 61 63 63 63 65 67 67 66 65 65 65 64 63 63 63 67 69 70 70
80 83 88 92 91 88 88 87 81 76 77 79 81 81 81 81 82 83 83 82 82 84 85 85 84 81 78 75 73 72 72 72 72 74 75 76 76 76 76 76 76 75 72 70 69 68 67 67 67 67 65 63 63 63 62 62 64 66 68 69 70 67 62 61 62 64 66 67 69 70 70 70 70 68 64 61 60 60 61 63 64 65 67 70 71 69 67 66 65 64 63 64 64 68 71 71 72
84 82 83 87 88 87 88 87 82 77 76 79 82 84 83 83 83 83 83 83 83 83 85 87 87 86 84 81 79 78 78 80 80 81 81 80 79 78 77 77 77 76 74 72 70 69 68 68 69 69 67 65 64 64 64 64 64 65 67 69 70 67 63 64 66 69 70 71 72 72 71 71 70 67 63 62 61 62 62 64 66 68 71 73 74 71 68 67 66 64 63 64 66 69 72 72 73
87 86 84 84 84 82 83 85 85 83 81 80 81 83 84 86 86 86 85 85 85 85 85 86 87 86 85 84 84 82 82 83 84 84 83 82 80 79 78 78 78 78 78 76 73 72 71 70 71 71 70 68 67 66 66 66 67 67 69 71 71 70 70 72 73 74 74 74 74 73 72 70 69 66 64 63 63 63 64 66 68 72 75 76 74 71 68 68 67 66 65 66 67 70 72 73 74
88 88 88 87 87 84 82 84 87 89 88 84 81 83 85 86 87 88 88 87 87 87 87 88 88 89 88 87 87 86 85 84 84 83 83 81 79 78 78 79 80 81 81 79 77 75 75 73 73 74 73 73 73 72 72 72 73 73 73 73 73 74 75 75 74 74 74 75 75 73 72 70 68 67 66 65 65 65 67 70 74 78 78 77 75 72 70 69 68 67 66 66 69 71 73 75 76
90 90 90 89 89 89 88 88 89 92 94 91 86 85 87 86 87 89 89 87 85 86 87 89 91 91 91 91 90 88 87 84 83 83 82 81 80 80 81 83 84 84 82 80 78 78 77 76 76 77 77 77 77 77 77 77 77 77 76 75 75 75 75 74 72 71 73 74 74 74 72 71 69 68 68 68 68 69 73 78 81 81 80 78 76 74 73 71 70 68 66 66 68 71 73 76 78
91 92 92 91 90 90 90 89 87 88 94 97 92 89 90 89 88 89 90 90 88 87 87 89 92 92 93 93 92 90 87 84 84 83 83 84 84 85 86 87 86 85 82 80 79 79 79 79 79 79 80 80 80 80 80 80 80 79 79 78 77 77 76 75 74 73 74 75 75 75 74 73 72 71 71 72 74 77 81 83 83 83 82 80 79 77 75 73 72 71 69 68 69 70 72 75 77
90 91 91 91 89 88 87 86 85 83 85 93 96 94 93 93 91 89 89 91 92 92 92 92 92 91 92 91 89 88 86 86 86 87 88 89 89 90 90 88 86 84 83 81 80 80 81 81 81 82 82 82 82 82 83 83 82 82 82 81 81 80 79 78 76 76 76 76 76 76 76 76 75 75 75 77 80 83 85 85 85 84 84 83 81 79 77 75 73 73 72 72 71 71 73 75 77
89 89 89 89 87 86 86 86 86 84 81 85 93 98 97 96 95 92 90 91 92 92 93 93 92 91 90 89 88 87 88 89 90 91 92 92 92 92 89 86 84 84 84 82 82 82 83 83 83 84 84 84 84 84 85 86 86 85 85 85 85 85 84 81 79 78 79 79 79 78 78 78 79 79 80 82 84 87 87 87 86 87 87 85 83 81 79 77 76 74 73 73 71 71 72 74 76
89 88 87 88 87 87 87 88 88 88 85 83 86 93 98 98 98 96 93 92 91 90 90 90 90 90 89 89 89 89 89 90 92 92 93 92 91 90 88 86 85 86 85 84 84 85 86 86 86 86 86 86 87 87 88 89 89 89 89 90 90 89 88 86 82 81 81 82 82 82 82 82 83 84 85 86 88 89 89 88 88 89 88 87 85 83 81 80 78 76 74 73 71 70 71 72 73
91 90 88 87 88 90 90 90 90 90 90 89 87 87 92 96 98 98 96 94 93 91 90 89 88 88 88 88 89 90 90 91 91 91 92 92 91 90 88 87 87 87 88 88 87 88 89 90 89 89 88 88 89 89 90 91 92 93 93 94 94 94 93 91 89 86 85 86 86 87 87 87 88 89 90 90 90 90 90 91 91 90 89 87 86 84 83 82 79 77 76 75 73 72 72 72 73
93 93 91 89 89 91 92 93 93 92 90 92 92 89 88 91 95 98 98 97 96 94 92 92 90 89 89 89 90 91 92 94 93 91 92 93 93 92 91 90 90 90 91 92 92 91 91 91 91 91 91 91 92 92 93 94 96 97 98 99 98 98 97 96 94 92 91 90 89 90 90 91 92 93 93 92 91 91 92 93 93 92 90 89 87 86 84 83 81 80 79 78 77 76 75 75 75
94 93 92 91 91 92 93 93 94 93 91 91 92 91 90 88 90 95 99 98 97 96 95 94 94 93 93 92 93 93 93 96 97 96 96 96 96 96 96 96 95 95 95 94 93 92 92 93 93 93 93 94 95 96 97 98 100 101 102 103 102 100 99 96 94 93 92 91 91 91 92 93 93 94 94 93 93 94 94 95 95 93 91 89 88 87 86 85 84 83 82 81 80 79 78 78 78
94 94 93 92 92 94 95 95 95 94 92 91 89 90 90 90 89 91 96 98 96 96 96 96 97 97 97 96 96 96 95 96 98 100 99 98 97 97 98 99 98 97 97 96 96 95 96 97 97 98 98 98 99 100 101 103 105 106 106 105 103 101 99 95 92 91 90 90 90 90 91 93 94 94 95 94 95 95 96 95 95 93 91 89 89 89 88 88 87 86 84 83 82 82 82 82 82
93 94 93 92 92 95 97 97 97 96 94 92 90 90 90 91 91 90 91 94 96 96 96 96 97 99 100 100 99 99 99 99 99 102 104 102 100 99 99 99 100 99 99 99 99 99 100 101 102 102 103 103 104 105 106 107 108 107 106 103 101 99 96 93 90 89 89 89 90 91 92 93 94 95 95 95 95 96 96 95 94 92 91 90 90 91 91 91 90 88 86 86 86 86 87 87 87
90 92 93 93 93 94 97 98 97 97 96 94 93 92 92 93 93 93 92 91 93 95 95 95 95 96 97 98 99 101 103 105 105 106 108 107 105 103 102 101 101 101 101 101 101 101 102 104 105 105 106 106 107 107 108 107 105 103 101 98 96 95 93 91 90 90 90 90 91 92 93 93 94 94 95 95 95 95 95 95 94 93 92 92 94 94 94 93 91 89 89 90 91 93 93 92 90
90 90 91 92 94 95 97 98 98 97 97 97 96 95 95 95 95 95 95 94 94 95 95 96 96 97 97 98 98 99 102 105 108 110 110 110 110 108 107 106 105 104 104 104 104 104 105 106 106 107 107 106 106 105 105 103 101 99 97 95 93 92 91 90 90 91 91 91 92 92 93 93 94 94 95 96 96 96 96 95 95 95 96 97 98 97 95 93 92 93 94 96 98 98 97 95 92
90 90 90 91 94 96 97 98 99 99 99 99 99 98 98 98 98 98 98 98 98 98 99 99 99 100 101 101 100 99 100 102 106 108 110 111 112 113 112 112 111 110 109 108 107 107 106 105 105 105 105 105 104 102 101 100 99 98 97 96 94 92 91 91 91 92 92 92 92 93 94 95 96 96 97 97 97 98 98 99 99 100 100 100 100 98 97 97 97 99 100 101 100 98 96 95 93
90 90 90 92 95 95 96 98 99 101 101 101 101 101 101 101 101 100 100 101 101 102 103 103 104 104 104 103 102 100 101 103 104 104 105 107 108 110 111 111 111 110 109 107 106 105 105 104 104 104 104 103 103 102 101 100 99 98 97 97 96 95 94 93 93 93 93 93 94 94 95 96 97 98 98 99 100 101 102 103 103 103 103 103 102 102 102 102 103 103 103 102 100 98 97 96 94
89 89 91 93 96 96 97 98 99 100 102 103 104 104 104 104 103 103 104 104 105 106 107 107 107 107 105 103 102 101 102 105 105 104 104 104 103 104 105 105 106 105 105 104 103 103 103 104 104 104 104 104 103 103 102 102 101 100 99 98 97 97 96 95 95 95 95 95 95 96 97 98 99 100 101 103 105 106 106 105 105 105 105 105 106 106 106 106 106 105 103 102 101 99 98 97 95
88 89 91 93 94 96 97 98 99 100 101 103 105 106 106 106 106 107 107 107 108 109 108 107 105 103 102 102 101 101 102 105 106 104 104 104 104 104 104 104 104 104 103 102 102 102 103 103 104 104 105 105 105 105 104 104 103 102 102 101 101 100 99 99 98 98 99 99 100 100 101 102 103 104 106 108 109 109 109 108 108 108 108 108 108 107 107 106 105 105 104 103 102 100 97 95 93
88 89 91 93 93 94 95 97 98 99 100 101 103 104 106 107 108 108 109 109 109 108 106 104 102 101 101 101 102 102 103 105 106 105 104 104 105 105 105 104 104 104 103 102 101 101 101 102 103 104 105 106 106 106 106 106 105 104 104 104 104 104 104 103 103 103 104 104 104 105 106 107 108 109 110 110 110 110 110 110 110 110 110 109 108 106 106 105 105 105 105 104 101 98 95 93 91
88 89 92 93 93 93 94 96 97 98 99 100 101 102 104 105 106 107 107 108 107 105 104 103 102 102 102 102 103 103 103 105 105 105 105 105 105 105 105 104 104 104 103 103 102 102 101 101 102 103 104 105 106 107 108 108 108 108 107 107 108 107 107 107 107 107 107 108 108 108 108 109 109 110 111 111 111 111 111 112 112 113 112 110 108 107 106 106 106 106 105 102 99 96 94 93 93
89 90 92 93 92 93 94 96 97 98 99 99 100 101 102 103 103 103 104 105 105 104 104 103 103 103 103 103 103 103 104 104 105 105 105 104 104 105 105 105 104 104 103 103 102 102 102 102 102 102 103 105 106 108 109 109 110 110 110 111 111 111 110 110 110 110 111 111 111 111 111 111 111 111 112 112 113 113 113 114 114 113 112 111 109 109 109 109 107 105 103 100 98 97 96 96 97
90 90 92 92 93 93 94 95 96 97 98 98 99 99 100 101 101 101 103 105 105 104 104 104 103 103 103 103 103 103 104 104 104 105 105 105 104 105 105 105 105 104 104 103 103 103 103 103 103 103 103 104 106 107 108 110 111 112 113 113 113 113 113 113 113 113 113 113 113 113 113 113 113 113 114 114 115 115 115 115 114 113 112 111 111 111 111 110 108 105 102 101 101 101 101 101 102
91 91 92 92 93 94 94 95 96 97 97 98 99 99 99 99 98 99 103 105 104 103 103 103 103 103 103 103 103 103 104 104 104 104 105 105 105 105 105 105 105 105 105 105 105 105 104 104 104 104 104 104 105 106 108 110 111 113 114 114 115 115 115 115 114 114 115 115 115 115 114 115 115 115 115 116 116 116 116 116 115 114 114 114 114 113 112 110 108 106 105 105 105 105 106 105 106
92 92 92 93 94 94 95 95 96 97 97 98 99 98 98 97 97 99 102 103 102 102 102 102 103 103 103 103 103 103 103 104 104 104 105 105 105 105 105 106 106 106 106 107 106 106 106 106 106 106 106 106 106 107 108 109 110 112 113 114 115 116 116 115 115 115 115 115 115 115 115 115 115 116 116 116 117 117 117 116 116 116 115 115 114 113 111 110 110 110 109 109 109 109 109 109 109
94 94 94 94 95 95 95 96 97 97 98 98 99 98 96 96 98 100 101 102 102 102 102 103 103 103 103 103 103 103 103 104 104 104 105 105 105 105 106 106 106 107 107 107 107 107 107 107 107 107 107 108 108 108 108 109 110 111 112 113 114 115 115 115 115 116 116 116 116 116 116 116 116 116 116 117 116 116 116 115 115 114 114 113 112 112 112 113 114 114 114 114 114 113 114 114 114
94 95 96 96 96 96 96 98 99 99 99 100 101 98 96 97 99 100 101 102 102 103 103 103 103 103 103 103 103 103 103 104 104 105 105 105 105 105 106 106 106 107 107 108 108 108 108 108 108 108 108 109 109 109 110 110 111 111 112 113 113 114 114 114 115 116 116 117 117 117 117 117 116 116 116 116 116 115 115 114 114 114 114 115 115 116 117 117 118 117 117 117 117 117 117 118 118
92 94 96 96 97 97 98 100 101 101 101 102 102 99 96 97 100 101 102 103 103 103 103 103 103 103 103 103 103 103 103 104 105 105 105 106 106 106 106 106 106 107 107 108 109 109 109 109 109 109 109 109 109 110 110 111 111 111 112 112 113 113 113 113 113 114 115 115 115 116 116 116 116 115 115 115 115 115 115 115 115 116 117 118 119 119 119 119 119 119 119 118 118 119 119 119 119
89 92 93 94 96 97 98 101 102 102 103 103 103 100 97 98 101 103 103 104 104 104 103 103 103 104 104 104 104 104 104 105 106 106 106 106 107 107 106 106 107 107 107 108 109 109 110 110 110 109 109 110 110 110 110 110 110 110 111 111 112 112 112 112 112 113 113 114 114 115 115 115 116 115 115 115 115 115 116 116 116 117 118 118 119 120 120 120 120 120 120 120 119 119 119 119 118
86 89 90 91 93 95 96 99 100 102 103 103 103 101 99 99 101 103 105 105 104 103 103 104 104 104 104 104 105 105 106 106 106 107 107 107 107 107 107 107 107 107 108 108 109 109 109 109 109 109 109 109 109 109 109 109 109 109 110 110 111 111 111 111 112 112 113 114 114 115 115 116 116 116 116 116 116 117 117 117 118 118 118 119 119 119 120 120 120 121 121 121 120 119 118 118 118
84 86 86 87 89 91 92 94 97 100 102 102 102 101 99 99 100 102 104 104 103 103 104 104 104 104 105 105 105 105 105 105 106 107 107 106 106 106 105 105 105 105 106 106 107 107 108 108 108 108 108 108 108 108 108 108 108 109 109 110 110 110 110 111 112 112 113 114 115 115 116 116 117 117 117 118 118 118 118 119 119 119 119 119 120 120 120 120 120 121 120 120 119 118 118 118 118
79 81 82 82 84 87 88 91 94 99 100 100 100 98 96 97 98 99 99 101 101 101 102 102 103 103 103 103 102 102 102 103 104 104 103 103 103 103 102 102 102 102 102 102 103 104 104 105 105 106 105 105 105 106 106 106 107 107 107 108 108 108 109 110 111 112 113 114 114 115 116 116 117 118 118 119 119 119 119 119 119 119 120 120 120 120 120 119 119 119 118 118 118 118 117 117 117
75 77 78 78 80 82 84 87 91 95 96 94 93 92 90 91 92 93 94 94 94 95 97 97 98 98 98 97 97 97 97 98 98 97 97 97 97 97 97 97 97 97 97 97 98 99 100 100 101 101 102 102 102 103 103 104 104 104 105 105 106 107 107 108 109 110 111 112 113 113 114 115 115 116 116 117 117 117 117 118 118 118 119 119 118 118 118 117 117 117 117 117 117 118 118 118 118
69 71 72 72 73 74 78 82 85 88 87 84 84 84 81 82 84 86 86 85 85 87 90 91 91 91 91 90 90 91 91 92 92 91 91 92 92 92 92 92 92 92 92 93 94 95 96 96 97 98 99 99 99 100 101 101 102 102 103 103 104 105 106 107 107 108 108 109 110 111 111 112 112 113 113 114 114 115 115 115 116 116 116 116 116 116 116 116 116 116 117 117 118 118 119 119 119
64 65 66 67 67 68 72 77 79 81 79 74 75 76 72 74 77 79 79 77 78 81 83 85 85 86 85 85 86 87 87 87 87 87 88 88 88 88 88 88 88 88 89 89 90 92 93 94 95 95 96 96 97 98 99 100 101 101 101 102 103 104 104 105 106 106 107 107 108 108 109 110 110 111 111 112 112 113 113 113 114 114 115 115 115 115 116 116 117 117 118 118 119 119 120 121 121
63 64 64 64 65 67 70 74 77 78 76 70 71 72 68 70 74 74 75 75 76 79 80 82 82 83 83 83 83 83 84 84 85 85 85 85 84 85 85 85 86 86 86 87 89 90 91 92 93 93 93 94 95 96 97 99 99 99 100 101 102 103 103 104 104 105 105 106 106 107 108 108 109 110 110 110 111 111 112 112 113 114 115 115 116 116 117 118 118 119 119 119 120 120 121 121 121
64 65 66 64 67 70 70 72 76 76 74 70 71 70 67 69 72 73 75 75 75 77 79 79 80 80 80 80 80 80 81 81 82 82 81 81 81 82 82 83 84 84 85 87 88 89 89 90 91 92 92 93 94 95 96 97 97 98 99 101 102 102 103 103 103 104 104 105 106 107 107 108 109 109 110 110 111 112 112 113 114 115 116 116 117 118 118 119 119 120 120 120 120 121 121 121 122
65 66 66 66 69 72 71 72 75 75 74 72 71 70 65 66 70 72 74 74 75 76 76 77 78 78 78 78 79 79 78 79 79 79 79 79 80 80 81 82 82 83 85 86 87 87 88 89 90 91 92 92 93 94 95 96 97 98 100 101 102 103 103 103 104 104 105 105 106 107 108 109 109 110 111 111 112 113 113 114 115 116 116 117 118 118 119 120 120 120 121 121 121 121 122 122 123
65 66 67 69 70 72 72 73 75 75 75 74 75 72 65 64 68 71 74 75 75 76 76 77 77 77 77 78 78 78 77 77 78 78 79 79 80 80 81 81 82 83 84 85 85 86 88 89 90 91 91 92 93 95 96 97 98 99 100 101 102 103 103 104 105 105 105 106 107 108 109 109 110 111 112 112 113 114 114 115 115 116 117 117 118 119 119 120 120 121 121 122 122 122 123 123 123
63 65 69 70 70 72 73 74 75 75 75 75 77 74 68 65 69 73 76 77 78 78 77 77 77 77 77 78 78 78 77 78 78 79 79 80 80 80 81 82 83 84 85 85 85 87 88 89 90 91 92 93 94 95 96 97 98 99 100 101 103 103 104 105 106 106 106 107 108 109 110 111 112 112 113 114 114 115 115 116 116 117 118 118 119 120 120 121 121 122 122 123 123 124 124 124 124
61 63 67 69 69 71 73 74 75 74 74 74 75 76 72 66 68 75 78 79 81 80 78 78 78 78 77 78 78 78 78 79 79 80 80 80 81 81 82 83 84 85 86 86 87 88 89 90 91 92 93 94 95 96 97 97 98 100 101 102 103 104 105 106 107 107 108 109 110 111 112 112 113 114 114 115 115 116 117 117 118 118 119 119 120 120 121 121 122 122 123 123 124 124 124 124 124
59 61 65 66 68 69 70 72 73 73 72 70 71 76 75 67 66 74 80 82 83 82 81 81 80 79 79 78 78 79 79 80 81 81 81 82 82 82 83 84 85 86 87 88 88 89 90 91 92 93 93 95 96 97 97 98 100 101 102 103 104 106 107 107 108 108 109 110 111 112 113 113 114 114 115 116 116 117 117 118 118 118 119 120 120 120 121 121 122 122 122 123 123 123 124 124 124
59 60 62 64 66 67 68 69 70 71 69 66 68 74 75 68 64 71 78 82 84 83 83 83 82 81 80 80 80 80 81 82 82 83 83 84 84 84 84 85 86 87 88 89 89 90 91 92 93 94 95 96 97 98 99 100 101 102 103 104 106 107 108 108 108 109 110 111 112 112 113 113 114 114 115 115 116 116 117 117 118 118 119 119 119 120 120 120 120 121 121 121 121 122 122 123 123
57 58 60 62 64 65 66 66 67 68 65 63 67 72 73 67 61 66 75 80 83 84 84 84 83 83 82 82 82 82 83 84 84 85 86 86 86 86 87 87 88 89 89 90 90 91 92 92 94 95 96 97 99 100 100 101 101 102 103 105 106 107 107 108 108 108 109 111 111 112 112 112 113 113 114 114 115 115 115 116 117 117 117 117 118 118 118 118 118 118 118 119 119 120 120 120 121
55 56 58 59 61 62 63 64 65 65 62 62 66 69 69 64 61 65 71 76 79 81 83 83 83 83 83 83 83 84 85 86 86 87 88 88 88 89 89 90 90 90 91 91 92 93 93 94 95 96 97 99 99 100 100 101 102 102 104 105 106 106 107 107 107 108 109 110 110 111 111 111 111 111 112 112 113 113 114 114 115 115 115 115 115 115 115 115 115 116 116 116 117 118 118 119 119
53 54 55 57 58 59 60 61 63 62 61 61 64 65 65 62 63 66 68 71 76 77 79 80 81 81 82 83 84 85 86 87 87 88 88 89 89 90 90 91 91 92 92 93 93 94 95 96 97 97 98 99 99 100 100 101 102 102 103 104 105 105 106 106 106 107 107 108 108 108 109 108 108 109 109 110 110 110 111 112 112 112 112 113 113 113 113 113 114 114 114 115 116 116 116 117 117
51 52 52 54 55 56 57 59 60 60 61 61 61 62 61 61 65 68 67 68 70 72 73 75 76 79 81 83 85 85 86 87 87 88 89 89 90 90 91 91 92 92 92 93 94 95 95 96 97 97 98 99 99 99 100 100 101 102 102 102 103 104 104 104 104 104 104 105 105 106 106 106 106 107 107 108 108 109 110 110 110 110 111 111 111 111 111 111 112 112 113 113 113 114 114 114 114
49 49 50 51 52 52 53 55 57 58 59 59 60 60 60 62 66 67 65 64 63 66 68 70 73 77 80 82 83 84 85 86 87 88 88 89 90 91 91 91 91 92 92 93 94 95 95 96 97 97 98 98 99 99 100 100 100 100 100 101 101 102 102 102 102 102 102 103 104 104 104 104 105 105 106 107 107 107 108 108 108 108 109 109 109 109 109 109 109 110 110 111 111 112 112 112 112
47 47 47 48 49 49 50 52 54 55 55 56 58 59 59 62 63 63 62 61 61 63 66 69 72 75 77 79 81 82 83 84 85 87 88 89 90 90 91 91 91 91 92 93 94 94 95 95 96 96 97 97 98 98 98 98 98 98 99 99 100 100 101 101 101 102 102 102 102 102 103 103 103 104 105 105 104 105 106 106 106 106 106 106 106 106 107 107 108 108 109 109 110 110 110 110 110
45 46 46 46 46 47 47 49 51 51 52 54 56 57 57 59 59 59 59 61 63 64 65 68 70 73 75 76 78 79 80 82 84 85 86 87 88 89 89 89 89 90 90 91 92 92 93 94 94 95 95 96 97 97 97 97 97 98 98 98 99 99 99 100 100 100 101 101 100 100 100 101 101 101 102 102 102 102 103 103 103 104 104 104 104 105 106 106 107 107 108 108 108 108 109 109 109
43 44 44 45 45 45 45 47 48 49 50 52 53 54 55 55 56 57 58 60 62 63 64 66 67 70 72 73 75 77 78 81 83 84 85 86 87 87 87 87 88 88 89 90 91 91 92 93 94 94 95 96 96 96 97 97 97 96 96 97 97 97 97 97 98 98 98 98 97 98 98 99 99 99 100 99 99 100 100 101 102 102 103 103 103 104 104 105 105 106 107 107 107 107 107 108 108
42 43 43 43 44 44 44 44 46 47 48 50 51 51 52 52 53 55 57 58 61 62 63 63 65 66 68 70 72 75 77 80 82 83 84 85 85 85 85 86 87 88 89 89 90 90 91 92 92 93 93 94 94 95 95 95 94 94 94 94 94 94 95 95 95 95 96 96 96 96 97 97 98 98 98 98 98 98 99 100 101 101 101 102 102 102 102 103 104 104 105 105 105 105 106 106 106
41 41 42 42 42 43 43 43 44 46 47 49 50 49 50 50 52 53 54 56 58 59 60 61 62 63 65 67 69 72 76 78 81 83 82 82 82 82 83 84 85 86 87 87 88 88 89 89 90 90 90 91 91 92 92 91 91 91 91 92 92 93 93 93 93 94 94 94 95 96 96 97 97 97 97 97 97 97 98 99 99 99 99 100 100 101 101 102 102 103 103 104 104 104 104 105 105
40 41 41 41 41 42 42 42 43 44 46 48 49 48 48 49 51 52 53 54 55 56 57 58 59 61 62 64 66 69 72 76 79 80 78 77 78 79 80 81 82 83 83 84 85 86 86 86 86 87 87 88 89 89 89 89 90 90 90 91 91 92 92 92 93 93 93 94 94 95 96 96 96 96 96 97 97 97 97 98 98 97 98 98 99 100 101 101 101 102 103 103 104 104 104 104 104
39 40 41 40 41 41 41 42 42 43 45 47 48 48 48 49 52 52 51 51 53 55 55 56 57 58 60 61 63 65 69 75 77 75 73 74 74 75 76 77 78 79 80 82 83 83 84 84 85 85 86 87 87 88 88 88 89 89 90 90 91 91 91 92 92 92 93 93 94 95 95 96 96 96 96 96 96 97 97 97 97 97 97 98 99 100 100 100 101 102 103 103 104 104 104 104 104
Wind_Direction
230 230 230 231 233 236 241 243 242 242 241 241 242 241 241 240 239 240 241 242 242 244 244 244 243 242 244 246 248 249 250 250 251 253 255 257 258 257 254 253 253 255 256 257 258 259 260 261 261 259 261 261 259 257 255 253 252 252 254 256 259 263 266 266 264 261 259 259 261 265 269 271 272 273 273 271 267 264 263 264 266 270 274 278 281 282 284 285 285 283 280 278 277 276 274 273 273
229 230 230 231 233 235 238 243 244 242 239 237 239 240 240 241 241 242 244 245 245 245 246 245 245 245 247 248 248 249 250 251 252 255 257 259 260 259 256 254 255 257 258 258 258 258 259 260 260 260 262 262 259 258 257 255 253 253 255 257 260 262 264 265 264 261 260 261 264 268 270 271 270 271 272 271 268 264 263 264 266 269 273 278 281 282 283 284 284 282 280 278 276 274 273 273 273
229 229 230 231 233 235 238 241 241 241 241 237 237 238 239 241 242 243 244 246 246 247 247 248 248 248 250 250 249 249 251 253 255 257 259 261 261 260 259 258 259 259 259 259 258 258 259 260 261 262 264 263 259 258 257 257 256 256 257 258 260 260 262 264 264 262 261 262 266 269 270 270 270 271 272 271 268 266 265 265 266 269 273 278 281 282 282 283 283 282 279 278 276 273 273 272 272
232 231 230 231 231 233 236 239 238 238 241 240 239 238 238 240 241 242 243 245 245 246 247 248 249 249 250 251 251 252 254 255 256 258 259 261 260 260 260 261 261 261 261 261 261 261 261 262 263 264 264 263 260 258 257 257 257 258 258 259 258 257 259 262 263 263 263 264 266 268 268 269 269 271 271 271 269 267 265 265 267 270 275 279 281 281 281 282 282 281 279 277 275 273 273 272 272
233 233 232 232 232 233 234 236 237 238 238 239 241 240 239 239 241 242 243 244 245 246 246 247 248 249 250 251 253 254 256 257 257 258 259 259 259 259 260 261 262 262 264 264 263 263 262 262 263 264 264 262 260 258 257 256 256 257 257 258 257 256 259 262 263 262 262 263 265 267 268 268 269 269 269 269 269 267 266 266 269 273 277 279 279 279 279 280 281 281 280 277 275 274 274 273 272
232 233 234 234 235 235 236 237 237 238 239 239 239 242 241 239 239 241 243 245 246 247 248 248 249 250 251 253 254 255 256 257 257 257 257 257 257 258 258 259 261 262 264 264 264 263 263 263 264 264 265 263 261 260 259 258 259 260 261 260 260 261 264 265 264 262 261 263 265 266 268 268 268 268 268 268 267 266 266 268 272 276 279 279 278 278 279 280 280 280 279 276 274 274 274 274 273
233 234 235 236 236 238 240 241 239 237 238 239 238 239 242 242 240 240 242 244 246 247 248 250 251 252 253 253 254 255 256 256 256 256 255 255 256 257 258 259 260 261 262 263 264 263 263 264 264 265 265 264 264 263 262 262 263 265 265 265 265 267 269 268 266 264 263 264 265 266 267 268 268 267 268 268 266 266 268 272 275 278 278 278 278 279 280 280 279 279 277 274 273 273 273 273 273
236 236 237 237 238 240 241 240 239 238 237 238 238 239 241 242 242 242 242 242 243 246 248 250 251 252 253 254 255 256 255 254 253 253 254 255 256 257 259 259 259 260 261 262 262 262 262 264 265 265 265 265 265 265 265 265 267 267 268 268 268 270 271 270 269 268 267 266 267 267 267 268 268 268 268 267 268 269 272 275 276 277 277 277 278 279 280 279 279 278 276 275 274 273 272 272 272
237 237 238 239 240 240 239 236 236 238 238 237 237 239 240 242 242 243 243 244 244 245 247 249 251 252 253 254 255 255 254 253 252 253 254 256 257 259 259 258 258 259 260 261 260 260 262 264 265 266 265 265 265 265 266 267 268 268 269 269 269 270 271 272 271 270 269 268 268 268 267 267 267 268 268 268 270 272 274 275 276 276 277 278 278 278 279 278 278 278 277 277 275 273 272 272 272
236 236 237 238 239 238 236 236 236 237 239 238 237 238 240 242 244 243 243 245 247 248 249 250 251 252 252 253 254 254 254 254 254 254 256 257 258 259 259 257 257 258 259 259 259 259 261 263 264 265 265 265 264 265 266 267 268 269 270 270 271 271 270 271 271 270 268 268 268 267 266 266 266 267 268 269 271 273 275 275 275 276 277 277 278 278 278 278 278 277 277 277 276 274 273 272 271
235 235 236 236 237 237 237 237 238 238 240 240 239 239 239 241 244 245 245 244 246 248 251 252 253 253 252 252 253 253 253 254 255 255 256 257 258 258 257 257 256 257 258 258 258 259 261 263 263 263 264 264 264 265 266 267 268 269 270 271 272 272 271 270 269 268 266 266 265 265 265 265 266 267 268 270 272 274 274 275 275 276 277 277 277 277 277 277 277 277 277 277 276 275 274 273 271
236 235 236 236 236 236 237 238 239 241 241 241 241 241 241 241 243 245 247 246 246 245 247 250 252 253 253 253 253 253 252 252 253 254 255 257 258 258 257 257 256 256 258 259 259 261 262 263 263 263 263 263 263 264 265 266 267 269 270 271 272 272 272 271 270 268 267 266 264 264 264 265 266 267 269 271 272 273 274 275 275 276 277 277 277 276 276 277 277 278 278 277 276 275 275 274 273
237 237 237 236 236 237 238 240 241 242 243 243 242 242 242 242 243 244 246 247 247 247 246 246 247 250 251 252 253 254 254 253 253 254 256 258 259 258 258 258 257 257 258 260 261 262 262 262 263 263 263 263 263 264 265 266 267 269 270 271 272 272 272 271 270 269 268 267 265 264 264 265 266 268 269 271 272 273 274 274 275 276 277 277 277 276 276 277 278 278 278 277 276 275 275 274 274
237 238 238 238 238 238 240 241 243 243 244 244 243 243 243 243 243 244 244 245 246 247 247 247 247 248 249 250 252 253 255 257 257 257 257 259 259 258 258 259 259 259 260 261 262 262 262 262 263 263 263 263 264 264 265 267 268 269 270 271 272 272 272 271 269 269 268 267 264 263 264 265 266 268 269 270 272 272 273 274 275 276 276 276 276 277 277 278 279 279 278 277 277 276 276 276 275
238 238 239 239 239 240 241 242 243 244 245 245 245 244 244 244 244 243 244 244 245 246 247 247 247 248 250 251 252 252 253 255 258 259 260 260 259 259 259 260 261 261 261 262 262 262 262 262 263 264 264 264 265 265 266 267 268 269 270 271 271 271 271 270 269 269 268 266 264 264 264 266 267 268 269 270 271 272 273 274 275 276 276 276 276 277 278 279 280 280 279 279 278 278 278 278 278
239 239 239 240 240 241 242 243 243 244 245 245 245 245 244 244 244 244 243 244 244 245 245 246 247 248 250 252 253 253 253 253 255 257 260 261 261 261 260 261 262 262 262 263 263 262 263 263 264 264 265 265 265 266 266 267 268 269 269 269 269 270 269 269 268 268 267 266 265 265 265 266 267 268 269 270 271 272 273 274 275 276 276 276 277 278 279 280 281 280 280 280 280 281 281 281 280
239 240 240 240 241 241 242 243 244 244 245 245 245 244 244 244 245 245 245 245 245 245 246 246 247 247 249 250 253 253 253 253 254 255 257 260 261 262 262 262 262 263 263 263 264 264 264 265 265 265 266 266 266 267 267 268 268 268 268 268 268 268 268 267 267 266 266 265 265 265 266 267 267 268 269 271 272 273 274 275 276 276 277 277 278 279 280 280 280 281 281 281 282 282 282 281 280
240 240 241 241 241 242 242 243 243 244 245 245 245 244 244 244 245 246 246 247 247 248 248 249 250 251 251 252 253 253 253 253 253 254 255 256 258 259 261 262 262 263 264 264 265 265 265 265 265 266 266 266 266 267 267 267 267 267 267 266 267 267 267 266 266 266 266 266 266 267 267 268 269 270 271 272 274 275 276 277 277 277 278 278 279 279 280 280 280 281 281 281 281 281 281 280 279
241 241 241 242 242 242 243 243 243 243 244 245 245 245 244 244 245 246 247 248 249 250 251 252 253 255 256 256 255 254 253 252 252 252 254 255 256 257 258 260 262 263 264 264 265 265 265 265 265 265 266 266 267 267 267 268 268 268 268 268 268 268 268 268 267 267 268 268 268 269 269 270 271 272 273 274 275 276 277 277 278 278 278 279 279 279 279 280 280 280 281 281 281 280 280 279 278
242 242 242 242 243 243 243 244 243 243 244 244 245 246 246 245 246 247 248 249 250 251 252 253 255 256 257 257 256 256 254 253 252 252 253 255 256 256 257 258 260 262 263 264 264 265 265 265 265 265 265 265 266 267 268 268 268 269 269 269 270 270 270 270 270 270 270 270 270 270 271 271 272 273 273 274 275 276 276 277 277 277 278 279 279 279 279 279 279 280 280 280 280 280 279 278 278
242 243 243 243 243 243 243 244 244 244 244 244 245 246 247 247 247 248 249 250 251 252 254 255 256 257 256 256 256 256 255 255 254 253 254 255 256 257 258 259 260 261 262 263 264 265 265 265 265 265 265 265 265 266 266 267 267 267 267 267 268 269 269 270 270 270 270 270 269 270 270 270 271 272 272 273 274 275 275 275 276 277 278 279 279 278 278 278 279 279 280 280 280 279 278 278 277
243 243 244 244 244 244 244 244 245 245 245 245 246 246 247 248 249 249 250 251 252 254 255 256 256 256 255 254 254 255 255 255 256 255 255 256 258 259 260 261 261 262 262 263 263 264 264 264 265 265 265 265 265 265 265 265 265 265 265 265 266 266 266 267 267 268 268 268 268 268 269 269 270 270 271 272 273 274 274 275 275 276 278 279 279 278 278 278 278 279 279 280 279 278 277 277 276
243 244 244 245 245 245 245 245 245 245 246 246 246 247 247 248 249 250 251 252 253 254 254 255 255 255 255 255 255 255 255 255 256 256 256 257 258 259 260 261 262 262 262 262 263 263 263 263 264 264 264 264 264 265 265 265 265 264 264 264 265 265 265 265 266 266 267 267 267 268 268 269 270 270 271 272 273 274 274 275 276 277 278 279 279 278 278 278 278 279 279 279 278 277 276 275 274
244 244 245 245 246 246 247 247 247 247 247 247 247 247 248 249 249 251 252 252 252 253 253 254 255 255 255 256 256 255 255 256 256 257 257 258 259 259 260 260 261 262 262 263 263 263 263 263 263 263 264 264 264 264 264 265 265 265 265 265 265 265 266 266 266 267 267 268 268 269 269 270 271 271 272 273 273 274 274 275 276 277 278 278 278 277 277 277 278 279 278 277 276 275 275 274 274
244 244 245 246 246 247 248 248 248 249 249 249 249 249 249 249 250 251 252 252 253 253 254 254 255 255 256 256 256 256 256 256 257 257 258 258 259 260 260 261 261 261 262 263 263 263 263 263 263 263 263 263 263 263 264 264 265 265 265 266 266 266 267 267 267 268 268 269 270 270 271 271 271 272 272 273 273 274 274 275 276 277 277 277 277 276 277 278 278 278 277 275 274 274 274 274 274
244 244 245 246 247 247 248 248 249 249 250 250 250 250 250 250 251 252 252 253 253 253 254 254 255 255 256 256 256 257 257 257 257 258 258 259 259 260 261 261 262 262 262 262 263 263 263 263 264 263 263 263 263 264 264 264 264 264 265 265 266 266 267 267 268 268 269 269 270 270 271 271 271 271 272 272 273 273 274 275 276 276 276 276 276 276 277 278 278 278 276 274 274 274 274 274 274
244 244 245 246 247 247 248 248 249 250 250 250 250 251 251 251 252 253 253 253 254 254 255 255 255 255 256 256 256 257 257 258 258 258 259 259 259 260 261 262 262 262 263 263 262 262 263 263 263 263 263 263 263 263 263 263 264 264 264 265 265 266 266 267 267 268 268 269 269 270 270 270 271 271 272 272 273 273 274 275 275 275 275 275 275 276 277 277 278 277 276 275 275 275 275 275 275
244 244 245 246 247 247 248 248 249 249 250 250 250 250 251 252 252 253 254 254 255 255 255 255 256 256 256 256 257 257 257 258 258 259 259 260 260 260 261 261 262 262 263 263 263 263 263 263 263 263 263 263 263 263 263 263 264 264 264 265 265 265 266 266 267 267 268 268 269 269 270 270 270 271 272 272 273 273 273 274 274 274 274 275 275 276 276 277 277 277 277 276 276 276 276 276 276
245 245 246 246 247 247 248 249 249 249 249 250 250 250 251 252 252 253 254 255 255 256 256 256 256 256 256 257 257 257 258 258 259 259 259 260 260 261 261 261 262 263 263 264 264 264 264 264 264 264 264 264 264 264 264 264 264 264 264 264 265 265 265 265 266 266 267 267 268 269 269 270 270 271 271 272 272 273 273 273 273 274 274 274 274 275 275 276 277 277 277 276 276 276 276 276 276
246 246 246 247 247 248 248 249 249 249 250 250 250 250 251 252 253 254 255 255 256 256 256 257 257 257 257 258 258 258 258 259 259 259 259 260 260 260 261 261 262 263 263 264 264 264 264 264 264 264 264 264 264 264 264 264 264 264 264 264 265 265 265 265 265 266 266 267 267 268 269 269 270 270 270 271 271 272 272 272 272 272 273 273 273 274 274 275 276 276 276 276 276 276 276 276 276
247 247 247 247 248 248 249 250 250 250 251 251 251 252 252 253 254 254 255 255 256 256 257 257 258 258 258 259 259 259 259 259 260 260 260 260 260 260 261 261 261 262 263 263 264 264 264 264 265 265 265 265 265 265 265 265 265 265 265 265 265 265 265 266 266 266 266 267 267 268 268 269 269 270 270 270 271 271 271 271 271 272 272 272 273 274 274 275 275 275 275 275 275 275 275 275 275
248 248 248 248 248 248 249 250 251 252 252 252 253 253 253 253 255 255 256 256 256 257 258 258 259 259 259 260 260 260 259 260 260 260 260 260 261 261 261 261 261 261 262 262 263 264 264 264 265 265 265 265 265 265 265 265 265 265 265 265 265 266 266 266 266 266 267 267 267 268 268 268 269 269 269 270 270 271 271 271 272 272 272 273 273 274 274 274 275 275 275 275 275 275 275 275 275
249 249 248 248 249 249 249 250 252 253 253 253 254 254 253 253 254 256 257 257 257 258 258 259 259 259 260 260 260 260 260 260 260 260 260 261 261 261 261 261 261 262 262 262 262 263 263 264 264 264 264 264 264 264 265 265 265 265 265 265 265 266 266 266 266 266 266 267 267 267 268 268 269 269 269 270 270 271 271 272 272 272 273 273 273 273 274 274 274 275 275 275 275 275 275 275 275
250 250 250 250 250 251 251 251 252 253 254 254 254 254 254 254 255 256 257 258 259 259 259 259 260 260 260 260 260 260 261 261 261 261 261 261 261 262 262 262 262 262 262 262 262 263 263 263 263 263 263 264 264 264 264 264 264 265 265 265 266 266 266 266 266 266 266 267 267 267 268 268 269 269 270 270 270 271 271 271 272 272 272 273 273 273 273 274 274 274 274 274 274 274 274 274 274
251 252 252 251 251 251 252 252 252 253 253 254 255 256 256 256 256 257 258 259 260 260 260 260 260 260 260 260 261 261 261 261 262 262 262 262 263 263 263 263 263 263 263 263 263 263 263 263 263 263 263 263 264 264 264 264 265 265 265 266 266 266 266 266 266 266 267 267 267 268 268 269 269 269 270 270 271 271 271 272 272 272 272 273 273 273 273 273 273 274 274 274 274 274 274 274 274
254 254 254 253 253 254 254 254 254 255 255 256 257 258 258 258 259 258 258 259 260 261 261 261 261 261 261 261 261 261 261 261 262 262 263 263 263 263 263 263 263 263 263 263 263 263 263 263 263 263 263 263 264 264 264 265 265 265 266 266 266 266 266 266 267 267 267 268 268 268 269 269 269 270 270 271 271 271 272 272 272 272 273 273 273 273 273 273 273 273 274 274 274 274 274 274 274
255 256 256 256 256 256 257 257 257 257 258 258 259 260 259 260 260 259 259 258 259 260 260 261 261 261 261 261 261 261 261 261 262 262 262 263 263 263 263 263 263 263 263 262 262 262 262 262 262 262 263 263 264 264 265 265 265 265 266 266 266 267 267 267 268 268 268 269 269 269 270 270 270 270 271 271 271 272 272 272 272 272 273 273 273 273 273 273 273 274 274 274 274 275 275 275 275
258 258 257 257 257 257 256 257 257 258 258 258 259 260 259 260 259 260 260 259 258 259 259 260 260 261 261 261 261 261 261 262 262 262 261 262 262 263 263 263 263 263 263 263 262 262 262 262 262 262 263 263 264 264 265 265 265 265 266 266 267 267 267 268 268 268 268 269 269 269 270 270 270 270 271 271 271 271 272 272 272 272 272 273 273 273 273 273 274 274 274 274 274 275 275 275 275
258 258 258 257 257 256 256 257 258 258 258 257 258 258 258 259 259 259 260 259 258 258 259 259 260 261 261 261 261 261 261 261 261 261 261 262 262 263 263 263 263 263 263 262 262 262 262 262 262 263 263 263 263 264 264 265 265 266 266 267 267 267 267 267 268 268 268 269 269 270 270 270 270 270 271 271 271 272 272 272 272 273 273 273 273 274 274 274 274 274 274 274 275 275 275 275 275
257 257 257 256 256 255 254 256 257 258 259 257 257 257 257 258 259 259 259 259 258 258 258 259 260 260 261 261 261 261 261 261 262 262 262 262 262 262 262 262 263 263 262 262 262 262 263 263 263 263 263 263 264 264 264 265 266 266 266 266 267 267 267 268 268 269 269 269 270 270 270 270 271 271 271 272 272 272 272 272 273 273 273 274 274 274 274 274 274 274 274 274 274 274 274 275 275
259 259 258 257 256 256 255 255 256 257 257 257 256 255 254 257 259 259 259 259 258 258 259 259 260 260 261 261 261 261 261 262 262 262 263 263 262 262 262 262 262 262 262 262 263 263 264 263 263 263 264 264 264 264 265 265 265 265 266 266 267 267 268 269 269 269 269 270 270 270 271 271 271 271 272 272 272 272 272 273 273 273 273 273 274 274 274 274 274 274 274 274 274 274 274 274 274
262 262 262 260 259 259 258 257 257 257 258 258 257 255 253 254 257 258 258 258 258 258 258 259 259 260 261 261 262 262 262 262 262 262 262 262 262 262 262 262 263 262 263 263 263 264 264 263 264 264 264 264 265 265 265 265 266 266 267 267 268 268 269 269 269 270 270 270 270 271 271 271 271 272 272 272 272 272 273 273 273 273 273 273 273 273 274 274 274 274 274 274 274 274 274 274 274
261 261 261 261 261 260 260 260 259 259 258 258 258 257 254 252 254 256 256 257 257 256 256 257 258 259 259 260 261 262 262 262 261 261 261 261 261 262 262 262 262 263 263 263 263 263 263 264 264 265 265 265 265 265 266 266 267 267 268 268 269 269 269 269 270 270 270 271 271 271 271 272 272 272 272 272 273 273 273 273 273 273 273 273 273 274 274 274 274 274 275 275 275 275 275 275 275
261 260 260 261 260 260 260 260 260 259 258 258 259 259 256 251 251 255 256 256 256 256 255 255 255 256 257 258 260 261 262 262 262 261 261 261 261 261 261 262 262 262 262 263 263 263 264 264 264 265 265 265 265 266 266 267 267 267 268 268 268 269 269 269 270 270 270 271 271 271 271 272 272 272 272 272 273 273 273 273 273 273 273 273 273 273 273 274 274 274 274 275 275 275 275 275 275
263 262 262 262 261 261 261 261 261 261 260 259 259 260 258 251 247 251 255 256 256 257 256 256 255 255 255 256 258 259 260 261 261 262 262 262 261 261 261 261 261 262 262 262 263 263 263 264 264 265 265 265 266 266 266 266 266 267 267 267 268 268 268 269 269 270 270 270 271 271 271 271 272 272 272 272 272 272 272 273 273 273 273 273 273 273 273 273 274 274 274 274 274 274 275 274 274
265 264 264 264 263 263 263 262 263 262 262 262 261 260 259 254 248 248 251 254 255 256 257 257 257 257 256 257 257 258 259 260 260 261 262 262 262 262 262 262 262 262 262 262 263 263 263 264 264 265 265 265 265 265 265 266 266 266 267 267 268 268 268 269 269 270 270 270 271 271 271 271 271 272 272 272 272 273 273 273 273 273 273 273 273 273 273 273 273 273 274 274 274 274 274 274 274
266 265 264 264 265 265 264 264 264 264 264 263 261 260 260 258 252 249 249 251 253 255 256 257 257 257 257 258 258 258 259 259 259 260 260 261 261 262 262 262 263 263 263 264 264 264 264 264 264 264 265 265 265 265 266 266 266 267 267 268 268 268 269 269 270 270 270 271 271 271 271 272 272 272 272 273 273 273 273 273 273 273 273 273 273 273 273 273 273 273 273 273 273 273 273 273 273
266 266 265 265 265 265 266 265 265 265 264 262 261 261 261 260 256 252 250 250 251 252 254 256 257 257 258 258 258 258 258 259 259 259 260 261 261 262 262 263 263 264 264 265 265 265 265 265 265 265 266 266 266 267 267 267 268 268 268 268 269 269 270 270 270 271 271 271 271 272 272 272 273 273 273 273 273 273 273 273 273 273 273 273 273 273 274 274 274 274 274 274 274 274 273 273 274
267 266 266 265 265 266 266 266 266 266 264 262 261 261 262 261 258 254 251 251 251 252 253 255 256 257 258 258 258 258 258 259 259 260 260 261 261 262 262 263 263 264 264 265 265 266 266 266 266 267 267 267 268 268 268 269 269 269 269 270 270 271 271 271 271 271 272 272 272 273 273 273 273 274 274 274 274 274 274 274 274 274 274 274 274 275 275 275 275 275 275 274 274 274 274 274 274
267 267 266 266 265 265 265 266 266 265 264 263 262 262 261 260 258 256 253 252 253 254 255 255 256 257 257 258 258 258 259 260 260 261 261 262 262 263 263 263 264 265 265 266 266 267 267 267 268 268 268 269 269 269 270 270 270 270 271 271 271 272 272 272 272 273 273 273 273 274 274 274 275 275 275 275 275 275 275 275 275 276 276 276 276 276 276 276 276 275 275 275 275 275 275 275 275
269 268 267 266 265 265 264 264 264 264 264 264 263 262 261 259 258 257 257 255 255 255 256 256 256 256 257 257 258 259 260 260 261 262 262 263 263 263 264 264 265 265 266 267 267 267 268 268 269 269 269 270 270 270 270 271 271 271 272 272 272 273 273 273 274 274 274 274 274 275 275 275 276 276 276 276 276 276 276 276 276 276 276 276 276 276 276 276 276 276 275 275 275 275 275 275 275
271 270 269 268 267 266 264 264 264 264 263 263 262 261 260 259 259 260 260 260 257 255 254 254 254 255 256 257 258 259 260 261 262 262 263 263 263 264 265 265 266 266 267 267 268 268 268 269 269 270 270 270 271 271 271 272 272 272 273 273 273 274 274 275 275 275 275 275 276 276 276 276 276 276 276 276 276 276 276 277 277 277 277 277 277 277 277 277 277 276 276 276 276 276 276 276 276
274 273 272 271 269 268 266 265 264 264 264 263 262 261 260 260 261 261 261 259 257 255 253 252 253 254 255 257 258 259 260 261 262 262 263 263 264 264 265 266 266 267 267 268 268 269 269 270 270 271 271 271 272 272 273 273 273 274 274 274 275 275 275 276 276 276 276 276 276 277 276 276 276 276 276 276 277 277 278 278 278 278 278 278 278 278 278 277 278 277 277 277 277 277 277 277 277
276 275 274 273 272 270 268 267 266 265 264 264 263 262 262 261 261 260 259 259 258 257 256 255 254 255 256 257 258 259 260 260 261 261 262 263 263 264 265 266 267 267 267 268 269 269 270 270 271 271 272 272 273 273 274 274 274 275 275 275 276 276 276 276 276 276 277 277 277 277 277 276 276 277 277 277 278 278 278 278 278 278 278 278 278 277 278 278 278 278 277 277 277 277 277 277 277
277 276 275 275 274 273 271 270 269 268 266 265 264 263 263 263 262 261 260 260 259 259 258 258 257 257 258 258 259 260 260 261 261 261 262 263 264 265 266 267 267 268 268 269 269 270 270 271 271 272 272 273 273 274 274 275 275 275 276 276 276 276 276 276 277 277 277 277 277 277 277 277 277 277 278 278 278 278 277 277 277 277 278 278 278 278 278 278 277 278 278 278 278 278 278 278 278
279 277 276 276 275 275 274 272 271 270 269 267 266 265 265 264 263 262 261 261 260 261 261 261 261 260 260 260 260 261 261 262 262 262 263 264 265 266 267 268 268 269 270 270 270 271 271 272 272 273 273 274 274 274 275 275 276 276 276 276 276 277 277 277 277 277 278 278 278 278 278 278 278 278 278 278 278 278 278 278 278 278 278 279 279 279 278 278 279 279 279 279 279 279 279 279 279
281 279 278 277 276 275 275 274 273 272 271 270 268 266 265 266 264 262 262 262 263 263 263 263 262 262 262 262 262 262 263 263 263 263 265 266 267 268 269 269 270 270 271 271 271 272 272 273 273 273 274 274 275 275 276 276 277 277 277 277 277 277 277 277 277 278 278 278 278 278 278 279 279 279 279 279 278 278 278 278 279 279 280 280 280 280 280 280 281 281 281 281 281 281 280 280 280
282 280 279 278 277 277 276 275 274 274 274 273 272 270 267 264 263 262 262 263 263 264 264 264 264 263 263 263 263 264 264 264 264 266 266 267 267 268 269 270 270 271 271 271 272 273 273 273 274 274 275 275 275 276 276 276 277 277 277 277 278 278 278 278 278 278 278 279 279 279 279 279 279 279 279 280 280 280 280 280 280 281 281 281 281 281 282 282 283 282 282 282 282 282 282 282 282